User: anonymous
Location: Niverville
(49.6028°N, 97.0419°W)
Time: 19:33:55
(UTC-05:00)
Language:

Cosmos 1154 Rocket - Orbit

View from above orbital plane
View from above orbital plane
View from above satellite
View from above satellite

Ground track
Ground track

The orbit data is extracted from the following two-line orbital elements,

1 11683U 80008B   14209.41314621  .00080687  00000-0  36322-3 0  4132
2 11683 081.1688 337.7775 0009965 242.9226 117.1022 15.83726848898829
Epoch (UTC): 28 July 2014 09:54:55
Eccentricity: 0.0009965
inclination: 81.1688°
perigee height: 313 km
apogee height: 326 km
right ascension of ascending node: 337.7775°
argument of perigee: 242.9226°
revolutions per day: 15.83726848
mean anomaly at epoch: 117.1022°
orbit number at epoch: 89882

The dashed part of the orbit path shows where the satellite is in the earth's shadow,  

DLR